Location: Ajisawe
(8.4333°N, 4.3833°E)
Time: 22:36:35
(UTC+00:00)

Vanguard 2 Rocket - Pass Details

Date: 25 April 2021
Orbit: 554 x 3326 km, 32.9° (Epoch: 16 May)

Event Time Altitude Azimuth Distance (km) Brightness Sun altitude
Rises 21:02:29 0° 287° (WNW) 6,513 12.0 -45.1°
Reaches altitude 10° 21:08:17 10° 277° (W) 5,031 11.1 -46.4°
Enters shadow 21:17:43 26° 234° (SW) 2,985 9.5 -48.4°
Maximum altitude 21:18:39 27° 226° (SW) 2,878 - -48.6°
Drops below altitude 10° 21:25:28 10° 171° (S) 3,206 - -50.0°
Sets 21:28:16 0° 158° (SSE) 3,841 - -50.6°
